Weather History for Corvallis, OR

Change the Weather History Date:

Friday, August 1, 2014

  Actual Average Record
Temperature  
Mean Temperature 75 °F -  
Max Temperature 91 °F 82 °F 96 °F (2007)
Min Temperature 59 °F 53 °F 48 °F (2002)
Cooling Degree Days 10    
Growing Degree Days 25 (Base 50)    
Moisture  
Dew Point 56 °F    
Average Humidity 61    
Maximum Humidity 82    
Minimum Humidity 31    
Precipitation  
Precipitation 0.01 in - - ()
Sea Level Pressure  
Sea Level Pressure 29.97 in    
Wind  
Wind Speed 11 mph (NW)    
Max Wind Speed 21 mph    
Max Gust Speed 25 mph    
Visibility 10 miles    
Events      
Averages and records for this station are not official NWS values.
T = Trace of Precipitation, MM = Missing Value Source: NWS Daily Summary

Daily Weather History Graph

Daily Weather History Graph

Search for Another Location

Airport:

Trip Planner

Search our weather history database for the weather conditions in past years. The results will help you decide how hot, cold, wet, or windy it might be!

Date:

Astronomy

Aug. 01, 2014 Rise Set
Actual Time 6:00 AM PDT 8:38 PM PDT
Civil Twilight 5:26 AM PDT 9:11 PM PDT
Nautical Twilight 4:44 AM PDT 9:53 PM PDT
Astronomical Twilight 3:56 AM PDT 10:40 PM PDT
Moon 11:44 AM PDT 11:09 PM PDT
Length of Visible Light 15h 44m
Length of Day
14h 38m
Waxing Crescent, 28% of the Moon is Illuminated
Aug 1
Waxing Crescent
Aug 3
First Quarter
Aug 10
Full
Aug 17
Last Quarter
Aug 25
New

Hourly Weather History & Observations

Time (PDT) Temp. Heat Index Dew Point Humidity Pressure Visibility Wind Dir Wind Speed Gust Speed Precip Events Conditions
12:15 AM 64.4 °F - 57.2 °F 77% 29.98 in - NW 15.0 mph - N/A   Unknown
12:35 AM 64.4 °F - 57.2 °F 77% 30.01 in - NW 6.9 mph - N/A   Unknown
1:15 AM 62.6 °F - 57.2 °F 82% 30.00 in 10.0 mi WNW 9.2 mph - 0.01 in   Unknown
1:35 AM 62.6 °F - 55.4 °F 77% 30.01 in 10.0 mi WNW 15.0 mph - 0.01 in   Unknown
1:55 AM 62.6 °F - 55.4 °F 77% 30.01 in 10.0 mi NW 11.5 mph - 0.01 in   Unknown
2:15 AM 60.8 °F - 55.4 °F 82% 30.02 in 10.0 mi WNW 9.2 mph - N/A   Unknown
2:35 AM 60.8 °F - 55.4 °F 82% 30.02 in 10.0 mi NW 11.5 mph - N/A   Unknown
2:55 AM 60.8 °F - 55.4 °F 82% 30.00 in 10.0 mi WNW 12.7 mph - N/A   Unknown
3:15 AM 60.8 °F - 53.6 °F 77% 30.01 in 10.0 mi WNW 16.1 mph 20.7 mph N/A   Unknown
3:35 AM 60.8 °F - 55.4 °F 82% 30.01 in 10.0 mi NW 6.9 mph - N/A   Unknown
3:55 AM 60.8 °F - 55.4 °F 82% 30.02 in 10.0 mi WNW 8.1 mph - N/A   Unknown
4:15 AM 60.8 °F - 55.4 °F 82% 30.01 in 10.0 mi NW 10.4 mph - N/A   Unknown
4:35 AM 60.8 °F - 55.4 °F 82% 30.00 in 10.0 mi WNW 11.5 mph - N/A   Unknown
4:55 AM 60.8 °F - 53.6 °F 77% 29.99 in 10.0 mi WNW 16.1 mph - N/A   Unknown
5:15 AM 60.8 °F - 53.6 °F 77% 30.00 in 10.0 mi NW 10.4 mph - N/A   Unknown
5:35 AM 60.8 °F - 53.6 °F 77% 30.00 in 10.0 mi WNW 4.6 mph - N/A   Unknown
5:55 AM 59.0 °F - 53.6 °F 82% 30.00 in 10.0 mi NW 15.0 mph - N/A   Unknown
6:15 AM 59.0 °F - 53.6 °F 82% 30.01 in 10.0 mi WNW 11.5 mph - N/A   Unknown
6:35 AM 59.0 °F - 53.6 °F 82% 30.01 in 10.0 mi WNW 10.4 mph - N/A   Unknown
6:55 AM 59.0 °F - 51.8 °F 77% 30.01 in 10.0 mi WNW 12.7 mph - N/A   Unknown
7:15 AM 59.0 °F - 53.6 °F 82% 30.01 in 10.0 mi WNW 10.4 mph - N/A   Unknown
7:35 AM 60.8 °F - 53.6 °F 77% 30.01 in 10.0 mi NW 10.4 mph - N/A   Unknown
7:55 AM 60.8 °F - 53.6 °F 77% 30.01 in 10.0 mi NW 8.1 mph - N/A   Unknown
8:15 AM 62.6 °F - 55.4 °F 77% 30.02 in 10.0 mi NW 8.1 mph - N/A   Unknown
8:35 AM 66.2 °F - 55.4 °F 68% 30.02 in 10.0 mi NW 5.8 mph - N/A   Unknown
8:55 AM 66.2 °F - 55.4 °F 68% 30.02 in 10.0 mi NW 6.9 mph - N/A   Unknown
9:15 AM 69.8 °F - 57.2 °F 64% 30.02 in 10.0 mi WNW 5.8 mph - N/A   Unknown
9:35 AM 71.6 °F - 53.6 °F 53% 30.02 in 10.0 mi NNW 3.5 mph - N/A   Unknown
10:15 AM 73.4 °F - 55.4 °F 53% 30.01 in 10.0 mi Calm Calm - N/A   Unknown
10:35 AM 75.2 °F - 55.4 °F 50% 30.01 in 10.0 mi Calm Calm - N/A   Unknown
11:15 AM 78.8 °F - 55.4 °F 44% 30.00 in 10.0 mi Calm Calm - N/A   Unknown
11:35 AM 78.8 °F - 57.2 °F 47% 30.00 in 10.0 mi NNW 3.5 mph - N/A   Unknown
11:55 AM 82.4 °F 82.0 °F 57.2 °F 42% 29.99 in 10.0 mi NNE 3.5 mph - N/A   Unknown
12:15 PM 82.4 °F 82.0 °F 57.2 °F 42% 29.99 in 10.0 mi North 4.6 mph - N/A   Unknown
12:35 PM 82.4 °F 82.0 °F 57.2 °F 42% 29.99 in 10.0 mi Calm Calm - N/A   Unknown
12:55 PM 84.2 °F 83.5 °F 57.2 °F 40% 29.98 in 10.0 mi Calm Calm - N/A   Unknown
1:15 PM 87.8 °F 87.1 °F 59.0 °F 38% 29.98 in - NNE 5.8 mph - N/A   Unknown
1:35 PM 87.8 °F 86.5 °F 57.2 °F 35% 29.97 in - Calm Calm - N/A   Unknown
1:55 PM 87.8 °F 86.1 °F 55.4 °F 33% 29.97 in - WSW 5.8 mph - N/A   Unknown
2:15 PM 87.8 °F 86.5 °F 57.2 °F 35% 29.96 in - NW 6.9 mph - N/A   Unknown
3:15 PM 91.4 °F 89.9 °F 57.2 °F 31% 29.94 in - North 4.6 mph - N/A   Unknown
3:35 PM 91.4 °F 89.9 °F 57.2 °F 31% 29.93 in - NW 3.5 mph - N/A   Unknown
3:55 PM 91.4 °F 90.7 °F 59.0 °F 34% 29.93 in - WNW 9.2 mph - N/A   Unknown
4:15 PM 91.4 °F 91.4 °F 60.8 °F 36% 29.92 in - NW 10.4 mph - N/A   Unknown
4:35 PM 91.4 °F 91.4 °F 60.8 °F 36% 29.92 in - NW 10.4 mph - N/A   Unknown
4:55 PM 89.6 °F 89.5 °F 60.8 °F 38% 29.91 in - NW 12.7 mph - N/A   Unknown
5:15 PM 87.8 °F 87.6 °F 60.8 °F 40% 29.91 in - NW 13.8 mph - N/A   Unknown
5:35 PM 87.8 °F 87.6 °F 60.8 °F 40% 29.91 in 10.0 mi NW 16.1 mph - N/A   Unknown
5:55 PM 86.0 °F 86.1 °F 60.8 °F 43% 29.91 in 10.0 mi NW 15.0 mph 20.7 mph N/A   Unknown
6:15 PM 84.2 °F 84.4 °F 60.8 °F 45% 29.91 in 10.0 mi NW 15.0 mph - N/A   Unknown
6:35 PM 82.4 °F 82.5 °F 59.0 °F 45% 29.91 in 10.0 mi NW 17.3 mph 21.9 mph N/A   Unknown
6:55 PM 80.6 °F 80.8 °F 57.2 °F 45% 29.91 in 10.0 mi NW 18.4 mph 21.9 mph N/A   Unknown
7:15 PM 78.8 °F - 57.2 °F 47% 29.92 in 10.0 mi WNW 18.4 mph 23.0 mph N/A   Unknown
7:35 PM 75.2 °F - 57.2 °F 53% 29.92 in 10.0 mi NW 18.4 mph 25.3 mph N/A   Unknown
7:55 PM 75.2 °F - 55.4 °F 50% 29.93 in 10.0 mi WNW 20.7 mph - N/A   Unknown
8:15 PM 71.6 °F - 55.4 °F 57% 29.93 in 10.0 mi NW 20.7 mph 25.3 mph N/A   Unknown
8:35 PM 69.8 °F - 55.4 °F 60% 29.93 in 10.0 mi WNW 20.7 mph 25.3 mph N/A   Unknown
8:55 PM 69.8 °F - 55.4 °F 60% 29.94 in 10.0 mi WNW 19.6 mph 24.2 mph N/A   Unknown
9:15 PM 68.0 °F - 55.4 °F 64% 29.95 in - WNW 18.4 mph - N/A   Unknown
9:35 PM 66.2 °F - 55.4 °F 68% 29.95 in - WNW 18.4 mph 24.2 mph N/A   Unknown
9:55 PM 66.2 °F - 55.4 °F 68% 29.95 in - WNW 18.4 mph 23.0 mph N/A   Unknown
10:35 PM 64.4 °F - 55.4 °F 73% 29.95 in - WNW 15.0 mph - N/A   Unknown
10:55 PM 64.4 °F - 53.6 °F 68% 29.96 in - WNW 16.1 mph - N/A   Unknown
11:15 PM 64.4 °F - 55.4 °F 73% 29.95 in 10.0 mi WNW 16.1 mph - N/A   Unknown
11:35 PM 62.6 °F - 55.4 °F 77% 29.96 in 10.0 mi WNW 13.8 mph - N/A   Unknown
11:55 PM 62.6 °F - 53.6 °F 72% 29.96 in 10.0 mi WNW 15.0 mph - N/A   Unknown